Stations météo

réclame
Mon MeteoGroup
Twenthe, Pays-Bas (6290): Température de l'air & dewpoint: 13.03.2019 03:00:00 - 19.03.2019 03:00:00 (CET)Twenthe, Pays-Bas (6290): Température de l'air 5cm: 13.03.2019 03:00:00 - 19.03.2019 03:00:00 (CET)Twenthe, Pays-Bas (6290): Vitesse du vent & gusts: 13.03.2019 03:00:00 - 19.03.2019 03:00:00 (CET)Twenthe, Pays-Bas (6290): Direction du vent: 13.03.2019 03:00:00 - 19.03.2019 03:00:00 (CET)Twenthe, Pays-Bas (6290): reduced air pressure: 13.03.2019 03:00:00 - 19.03.2019 03:00:00 (CET)Twenthe, Pays-Bas (6290): visibility: 13.03.2019 03:00:00 - 19.03.2019 03:00:00 (CET)Twenthe, Pays-Bas (6290): Quantités de précipitations: 13.03.2019 03:00:00 - 19.03.2019 03:00:00 (CET)
Date & Time tt [°C] td [°C] tt 5cm [°C] ff [km/h] ff [knt] fx [km/h] fx [knt] dd ppp [hPa] vv [km] rr [mm]
19.03.2019 03:00:00 -0,5 -0,9 -4,0 4 2 - - SW 1024,8 13 -
19.03.2019 02:00:00 0,0 -0,6 -3,3 7 4 11 6 WSW 1024,4 15 0,0
19.03.2019 01:00:00 -0,2 -0,7 -3,3 4 2 11 6 W 1024,3 15 0,0
19.03.2019 00:00:00 0,7 -0,8 -2,4 7 4 14 8 SW 1024,1 19 0,0
18.03.2019 23:00:00 1,0 -1,0 -1,7 7 4 11 6 WSW 1023,4 21 0,0
18.03.2019 22:00:00 2,5 -0,2 -0,1 7 4 14 8 W 1022,9 23 0,0
18.03.2019 21:00:00 3,8 0,2 2,4 11 6 18 10 WNW 1022,2 25 0,0
18.03.2019 20:00:00 5,3 0,5 4,5 11 6 32 18 WNW 1021,6 27 0,0
18.03.2019 19:00:00 5,2 0,5 4,7 29 16 43 23 WNW 1020,8 26 0,0
18.03.2019 18:00:00 6,8 0,7 6,5 18 10 36 19 WNW 1019,9 23 0,0
18.03.2019 17:00:00 6,9 0,7 6,9 18 10 43 23 WNW 1019,1 34 0,0
18.03.2019 16:00:00 7,2 1,2 7,3 22 12 43 23 WNW 1018,5 23 0,0
18.03.2019 15:00:00 9,1 -0,8 9,9 25 14 43 23 WNW 1017,5 29 0,0
18.03.2019 14:00:00 8,5 0,6 9,5 29 16 43 23 W 1017,1 22 0,0
18.03.2019 13:00:00 5,9 1,2 6,1 32 18 54 29 WNW 1017,1 13 0,0
18.03.2019 12:00:00 5,9 1,6 5,6 14 8 58 31 WNW 1016,4 29 0,2
18.03.2019 11:00:00 8,1 2,0 8,4 29 16 43 23 W 1015,4 21 0,0
18.03.2019 10:00:00 6,8 2,4 7,2 25 14 40 21 W 1014,9 20 0,0
18.03.2019 09:00:00 5,1 2,0 5,0 25 14 40 21 W 1014,2 17 0,0
18.03.2019 08:00:00 4,1 2,3 3,4 22 12 29 16 WSW 1013,2 18 0,0
18.03.2019 07:00:00 3,1 1,7 2,2 18 10 25 14 WSW 1012,3 19 0,0
18.03.2019 06:00:00 2,9 1,9 2,3 18 10 25 14 SW 1011,5 17 0,0
18.03.2019 05:00:00 4,1 2,8 3,2 18 10 29 16 WSW 1010,8 20 0,0
18.03.2019 04:00:00 4,1 2,9 3,6 18 10 32 18 WSW 1009,9 17 0,0
18.03.2019 03:00:00 3,7 2,6 3,5 22 12 47 25 WSW 1009,5 19 1,0
18.03.2019 02:00:00 3,8 1,6 3,6 22 12 40 21 SW 1009,2 20 0,1
18.03.2019 01:00:00 3,6 0,8 2,9 25 14 40 21 SW 1008,5 45 0,0
18.03.2019 00:00:00 3,5 0,6 2,6 25 14 40 21 SW 1008,4 50 0,0
17.03.2019 23:00:00 3,9 0,3 3,0 25 14 40 21 SW 1008,1 50 0,0
17.03.2019 22:00:00 4,4 0,0 3,1 22 12 32 18 SW 1007,5 50 0,0
17.03.2019 21:00:00 4,5 -0,1 3,2 18 10 25 14 SW 1006,9 49 0,0
17.03.2019 20:00:00 4,3 -0,3 2,6 11 6 32 18 SW 1006,4 48 0,0
17.03.2019 19:00:00 6,3 -0,7 4,5 22 12 40 21 W 1005,5 50 0,0
17.03.2019 18:00:00 7,5 0,2 6,9 22 12 36 19 W 1004,7 50 0,0
17.03.2019 17:00:00 8,0 1,3 8,1 22 12 40 21 W 1003,8 44 0,0
17.03.2019 16:00:00 8,7 1,9 7,9 25 14 47 25 W 1003,2 43 0,0
17.03.2019 15:00:00 7,2 2,5 7,1 25 14 40 21 W 1002,4 28 0,1
17.03.2019 14:00:00 8,0 4,7 7,5 14 8 47 25 W 1001,5 47 0,9
17.03.2019 13:00:00 8,1 3,4 8,6 32 18 43 23 WSW 1000,9 37 0,0
17.03.2019 12:00:00 7,8 3,3 8,4 32 18 43 23 W 1000,3 48 0,0
17.03.2019 11:00:00 6,2 3,8 6,2 32 18 50 27 W 999,7 21 0,0
17.03.2019 10:00:00 6,3 3,6 6,0 22 12 32 18 WSW 999,0 47 0,0
17.03.2019 09:00:00 5,6 3,2 5,6 18 10 29 16 SW 998,1 48 0,1
17.03.2019 08:00:00 5,6 3,8 5,4 14 8 36 19 WSW 997,4 50 0,6
17.03.2019 07:00:00 5,8 4,5 5,8 32 18 58 31 W 996,3 4,7 1,5
17.03.2019 06:00:00 8,2 6,0 7,9 29 16 50 27 SW 994,8 22 0,4
17.03.2019 05:00:00 8,7 5,8 8,1 32 18 58 31 SW 994,9 15 0,3
17.03.2019 04:00:00 10,3 4,8 9,7 32 18 58 31 SSW 994,9 41 0,0
17.03.2019 03:00:00 10,5 5,1 9,7 32 18 58 31 SSW 995,6 45 0,0
17.03.2019 02:00:00 10,7 6,0 9,9 29 16 47 25 SSW 996,2 44 0,0
17.03.2019 01:00:00 10,9 6,3 10,4 25 14 47 25 SW 997,4 43 0,0
17.03.2019 00:00:00 10,8 6,3 10,3 29 16 50 27 SW 998,4 27 0,0
16.03.2019 23:00:00 10,7 6,1 10,2 29 16 47 25 SSW 999,0 35 0,0
16.03.2019 22:00:00 10,6 5,9 10,0 29 16 47 25 SSW 999,6 47 0,0
16.03.2019 21:00:00 10,4 5,6 9,8 29 16 47 25 SSW 1000,4 47 0,0
16.03.2019 20:00:00 10,4 5,5 9,8 22 12 43 23 SW 1001,2 47 0,0
16.03.2019 19:00:00 10,4 5,5 9,8 29 16 47 25 SW 1001,7 50 0,0
16.03.2019 18:00:00 10,6 5,4 10,0 29 16 58 31 SW 1001,7 50 0,0
16.03.2019 17:00:00 10,8 5,7 10,5 36 19 68 37 SW 1002,1 43 0,0
16.03.2019 16:00:00 10,9 6,1 10,5 36 19 65 35 SW 1002,5 49 0,0
16.03.2019 15:00:00 10,8 6,5 10,5 40 21 61 33 SW 1003,1 43 0,0
16.03.2019 14:00:00 11,1 7,0 11,0 40 21 61 33 SW 1003,5 35 0,0
16.03.2019 13:00:00 10,6 7,7 10,5 40 21 61 33 SW 1004,0 30 0,1
16.03.2019 12:00:00 9,9 8,3 9,7 32 18 61 33 SW 1004,4 19 0,5
16.03.2019 11:00:00 9,8 8,6 9,5 32 18 50 27 SW 1004,8 9 0,8
16.03.2019 10:00:00 7,7 6,9 7,5 22 12 32 18 SSW 1005,4 9 1,0
16.03.2019 09:00:00 6,7 6,1 6,6 11 6 22 12 S 1006,3 6 1,0
16.03.2019 08:00:00 5,7 3,9 5,4 11 6 11 6 S 1007,0 20 0,5
16.03.2019 07:00:00 5,8 3,1 5,2 4 2 36 19 SSW 1007,7 31 0,1
16.03.2019 06:00:00 7,1 2,4 5,6 14 8 29 16 SSW 1007,9 25 0,0
16.03.2019 05:00:00 6,8 2,9 6,0 11 6 18 10 SW 1008,3 28 0,0
16.03.2019 04:00:00 6,8 2,2 6,1 14 8 25 14 W 1008,3 32 0,0
16.03.2019 03:00:00 7,4 2,1 6,6 18 10 29 16 W 1007,9 32 0,0
16.03.2019 02:00:00 7,2 2,7 6,3 14 8 25 14 W 1008,0 27 0,0
16.03.2019 01:00:00 6,5 2,7 5,8 14 8 22 12 W 1007,7 34 0,0
16.03.2019 00:00:00 6,4 2,3 5,2 18 10 29 16 W 1007,2 37 0,0
15.03.2019 23:00:00 6,8 2,6 5,3 18 10 29 16 W 1006,4 30 0,0
15.03.2019 22:00:00 7,1 2,1 5,9 18 10 29 16 W 1005,9 40 0,0
15.03.2019 21:00:00 7,7 2,1 6,5 22 12 40 21 W 1005,5 37 0,0
15.03.2019 20:00:00 8,3 2,7 6,9 22 12 36 19 W 1004,5 38 0,0
15.03.2019 19:00:00 8,8 3,6 7,6 22 12 50 27 W 1003,7 36 0,0
15.03.2019 18:00:00 10,0 4,8 9,4 32 18 50 27 W 1002,3 30 0,0
15.03.2019 17:00:00 10,8 6,6 10,4 32 18 54 29 W 1001,5 36 0,0
15.03.2019 16:00:00 10,3 8,6 10,1 22 12 43 23 W 1001,4 28 0,5
15.03.2019 15:00:00 10,3 8,3 10,1 29 16 61 33 W 1000,6 9 3,4
15.03.2019 14:00:00 11,5 10,0 11,3 32 18 50 27 W 1000,0 16 1,0
15.03.2019 13:00:00 12,5 9,2 12,5 40 21 58 31 W 1000,0 31 0,0
15.03.2019 12:00:00 10,9 10,0 10,6 29 16 43 23 WSW 999,8 24 0,2
15.03.2019 11:00:00 8,2 7,5 8,1 22 12 40 21 SW 1000,1 4,2 0,3
15.03.2019 10:00:00 6,8 6,0 6,7 25 14 36 19 SSW 1000,4 3,8 0,1
15.03.2019 09:00:00 6,6 5,1 6,6 22 12 32 18 SSW 1001,0 7 0,1
15.03.2019 08:00:00 6,9 4,3 6,7 18 10 29 16 SSW 1001,9 15 0,0
15.03.2019 07:00:00 6,5 4,1 6,1 14 8 29 16 SW 1002,4 19 0,0
15.03.2019 06:00:00 6,7 3,8 6,2 18 10 29 16 SW 1002,9 19 0,0
15.03.2019 05:00:00 6,4 3,3 5,8 18 10 29 16 SW 1003,4 23 0,0
15.03.2019 04:00:00 6,5 3,3 5,8 18 10 32 18 SW 1004,0 21 0,0
15.03.2019 03:00:00 6,0 3,2 5,3 18 10 29 16 WSW 1004,3 18 0,0
15.03.2019 02:00:00 6,4 3,4 5,6 18 10 29 16 WSW 1004,1 18 0,0
15.03.2019 01:00:00 6,6 3,5 6,0 18 10 29 16 WSW 1003,7 18 0,0
15.03.2019 00:00:00 6,5 3,6 5,4 18 10 36 19 WSW 1003,3 17 0,0
14.03.2019 23:00:00 7,1 3,9 6,3 22 12 32 18 WSW 1003,0 17 0,0
14.03.2019 22:00:00 6,4 3,2 5,2 22 12 32 18 W 1002,0 20 0,0
14.03.2019 21:00:00 6,9 3,6 5,8 18 10 43 23 W 1001,1 22 0,0
14.03.2019 20:00:00 8,0 4,3 7,5 25 14 47 25 W 999,8 23 0,0
14.03.2019 19:00:00 8,0 4,0 7,4 25 14 50 27 W 998,5 25 0,0
14.03.2019 18:00:00 8,3 4,1 7,9 32 18 61 33 WNW 996,7 29 0,0
14.03.2019 17:00:00 8,8 4,8 8,6 36 19 61 33 WNW 994,8 29 0,0
14.03.2019 16:00:00 8,4 5,9 8,2 32 18 68 37 W 993,6 33 0,3
14.03.2019 15:00:00 8,5 6,2 8,1 36 19 61 33 W 992,2 10 1,6
14.03.2019 14:00:00 8,3 7,4 8,1 32 18 58 31 SW 991,2 5 1,8
14.03.2019 13:00:00 7,1 6,0 7,0 25 14 43 23 SSW 992,4 9 2,5
14.03.2019 12:00:00 6,6 5,4 6,8 25 14 40 21 SSW 994,4 12 1,3
14.03.2019 11:00:00 6,1 4,7 6,2 29 16 43 23 SSW 996,7 11 0,9
14.03.2019 10:00:00 5,8 4,6 5,8 25 14 40 21 SW 998,7 9 0,7
14.03.2019 09:00:00 5,6 4,5 5,5 25 14 50 27 SSW 1000,3 7 0,4
14.03.2019 08:00:00 5,6 4,4 5,5 25 14 40 21 SSW 1001,7 7 0,5
14.03.2019 07:00:00 5,8 4,2 5,5 22 12 40 21 SW 1003,0 7 0,3
14.03.2019 06:00:00 6,4 3,5 5,8 22 12 43 23 SW 1004,4 10 0,0
14.03.2019 05:00:00 6,6 3,2 6,1 25 14 36 19 WSW 1005,3 16 0,0
14.03.2019 04:00:00 6,5 3,8 6,1 25 14 40 21 WSW 1005,9 13 0,0
14.03.2019 03:00:00 6,8 4,3 6,5 22 12 32 18 WSW 1006,5 12 0,0
14.03.2019 02:00:00 6,5 4,2 5,8 22 12 29 16 WSW 1007,0 12 0,0
14.03.2019 01:00:00 5,9 3,6 4,6 18 10 29 16 WSW 1006,8 14 0,0
14.03.2019 00:00:00 5,5 2,1 4,5 22 12 36 19 WSW 1006,3 17 0,0
13.03.2019 23:00:00 6,9 2,4 6,3 22 12 36 19 W 1005,6 16 0,0
13.03.2019 22:00:00 7,4 2,7 6,8 25 14 47 25 W 1004,6 15 0,0
13.03.2019 21:00:00 6,9 3,2 6,2 29 16 58 31 W 1003,6 12 0,1
13.03.2019 20:00:00 6,9 3,0 6,3 36 19 54 29 W 1002,8 17 0,0
13.03.2019 19:00:00 8,0 2,5 7,3 32 18 54 29 W 1001,5 25 0,0
13.03.2019 18:00:00 8,2 2,9 7,6 32 18 61 33 W 1000,4 28 0,0
13.03.2019 17:00:00 8,1 4,3 7,5 29 16 54 29 W 999,5 22 0,0
13.03.2019 16:00:00 8,0 5,3 8,0 29 16 50 27 W 999,2 20 0,3
13.03.2019 15:00:00 7,0 5,2 6,7 29 16 47 25 WSW 999,0 23 0,2
13.03.2019 14:00:00 5,7 4,4 5,5 36 19 65 35 WSW 999,0 6 4,2
13.03.2019 13:00:00 6,0 4,4 5,9 32 18 61 33 SW 999,2 7 2,5
13.03.2019 12:00:00 6,6 3,9 6,2 32 18 54 29 SW 999,1 9 0,6
13.03.2019 11:00:00 5,9 3,7 5,6 29 16 61 33 SW 999,5 20 0,2
13.03.2019 10:00:00 5,9 3,5 5,6 36 19 58 31 SW 999,7 11 0,6
13.03.2019 09:00:00 6,2 3,0 6,0 32 18 54 29 SW 999,8 13 0,0
13.03.2019 08:00:00 6,1 2,3 5,7 32 18 61 33 SW 1000,1 16 0,0
13.03.2019 07:00:00 5,7 2,0 5,3 36 19 58 31 SW 1000,4 16 0,0
13.03.2019 06:00:00 5,6 1,8 5,1 36 19 58 31 SW 1000,5 20 0,0
13.03.2019 05:00:00 5,1 1,8 4,7 32 18 50 27 SW 1000,8 23 0,0
13.03.2019 04:00:00 5,3 2,1 4,8 29 16 54 29 SW 1001,1 21 0,0
13.03.2019 03:00:00 4,9 2,1 4,4 25 14 47 25 SW 1001,4 33 0,0

tt = Température de l'air
td = dewpoint
tt 5cm = Température de l'air 5cm
ff = Vitesse du vent
fx = gusts
dd = Direction du vent
ppp = reduced air pressure
vv = visibility
rr = Quantités de précipitations

stations d'obs. à proximité